Showing default

GONETS M 16 (M26), 44907

Orbit data source: Space-Track

GONETS M 16 (M26), 44907 is a payload satellite owned by Gonets (CIS) in LEO that was launched on Thu, 26 Dec 2019 UTC via an ROKOT launch vehicle from the Plesetsk Missile And Space Complex (PKMTR). Payload-class satellites include a variety of spacecraft equipped with specific instruments for various scientific and technological missions. These include communications satellites like Starlink; space stations such as the ISS; scientific satellites like the Hubble; Earth observation satellites from companies like Planet Labs, Umbra, and HawkEye 360; GPS; miniature CubeSats for education and research; and military/defense satellites.

Loading next visibility...
Identifier
44907, 2019-096C
Orbit
LEO
Country
Flag of CISCIS
Related business
Manufacturer
Resehetnev ISS
Mission
Operational Commercial Communications
Bus & Motor
STRELA-3M, Unknown motor
Mass
225 kg wet, 225 kg dry
Launch date (UTC)
2019-12-26 (6 years ago)
Launch vehicle
ROKOT
Launch site
Plesetsk Missile And Space Complex (PKMTR)
Object type
Payload
Rocket body
Debris
Shape & HBR
Cyl + 1 Ant, 3.5 m
Radar Cross Section
1.798 m², Large (>1 m²)

Expand to show TLE details & history
Last TLE update: 13 hours ago

TLE from 13 hours ago
0 GONETS M 16 (M26)
1 44907U 19096C   25258.28552032  .00000048  00000-0  27255-3 0  9994
2 44907  82.5145 254.5279 0012683  96.0079 264.2446 12.42857924259486
Epoch: 2025-09-15T06:51Z
TLE epoch observation values (Epoch: 2025-09-15T06:51:08.955Z)
Latitude
-0.00007°
Longitude
157.24821°
Altitude
1,498.225 km
Speed
7.115 km/s
True Right ascension
16h 58m 06s
True Declination
0° 00' 00"
Sunlit
Object was in daylight at epoch
Visualization orbit readout
Latitude
Unknown
Longitude
Unknown
Altitude
Unknown
Speed
Unknown
Apparent Right ascension
Unknown
Apparent Declination
Unknown
Sunlit
N/A
Visualization observer readout
Local Sidereal Time
12:17:19
Azimuth
Unknown
Elevation
Unknown
Doppler factor
Unknown
Orbital elements
Apogee altitude
1,501.844 km
Perigee altitude
1,481.881 km
Semi-major axis
7,869.999 km
Eccentricity
0.00127
Inclination
82.5145°
RAAN
254.5279°
Arg. of periapsis
96.0079°
True anomaly
264.10002°
Mean anomaly
264.2446°
Eccentric anomaly
264.17231°
Mean motion
3.10872 °/min
Orbital period
115.8 mins
BSTAR
0.00027255
Loading maneuver chart data...
Computing Atmospheric mass density...
Loading historical data...
Loading historical data...
Loading historical data...
Loading historical data...
Loading historical data...
Loading historical data...
Loading historical data...
Other satellites on launch #96 in the year 2019 (2019-12-26 UTC)

Documentation

Showing up to 5 results
|